Retour au catalogue

STARLINK-35450

ActifCommunicationsVLEO
NORAD 65868·PAYLOAD·🇺🇸 United States

Lancé Oct 3, 2025 depuis Vandenberg Space Force Base

Loading…

Prochains Passages (prochaines 24 heures)

TLE

FraisSource: CelesTrak SupGP

Époque: Sep 14, 2026, 14:29 UTC

1 65868C 25223Q   26257.60395833  .00046575  00000+0  13759-2 0  2576
2 65868  53.1560 133.0878 0001292 105.5189 125.5367 15.34371312    18

Suivez STARLINK-35450 en temps réel avec AllMySat

Download on the App Store